{"data":{"norad_id":45760,"epoch":"2026-05-25T06:00:02.000160Z","epoch_age_seconds":46722,"freshness":"FRESH","line1":"1 45760U 20038AG  26145.25002315  .00299132  47530-4  65275-3 0  9998","line2":"2 45760  53.0382 125.1115 0005147  39.6042 134.7337 15.97739617  6023","mean_motion":15.97739617,"eccentricity":0.0005147,"inclination_deg":53.0382,"raan_deg":125.1115,"arg_perigee_deg":39.6042,"mean_anomaly_deg":134.7337,"bstar":0.00065275,"rev_number":602,"period_min":90.127326422801,"perigee_km":277.26433941755,"apogee_km":284.11893761804,"semimajor_km":6658.8286385178,"source":"CELESTRAK","updated_at":"2026-05-25T13:38:16.455524Z"}}